Regional Weather Roundup
Issued by NWS

Home | Current Version | Previous Version | Text Only | Print | Product List | Glossary Off
Versions: 1 2 3 4 5 6 7 8 9 10 11 12 13 14 15 16 17 18 19 20 21 22 23 24 25 26 27 28 29 30 31 32 33 34 35 36 37 38 39 40 41 42 43 44 45 46 47 48 49 50

000
ASUS45 KCYS 290110
RWRWY

WYOMING REGIONAL WEATHER ROUNDUP
NATIONAL WEATHER SERVICE CHEYENNE WY
700 PM MDT FRI AUG 28 2015

NOTE:  "FAIR" INDICATES FEW OR NO CLOUDS BELOW 12,000 FEET
WITH NO SIGNIFICANT WEATHER AND/OR OBSTRUCTIONS TO VISIBILITY.

WYZ001-290200-
YELLOWSTONE NATIONAL PARK

CITY           SKY/WX    TMP DP  RH WIND       PRES   REMARKS
LK YELLOWSTONE   N/A     69  31  24 VRB3      30.36F
W YELLOWSTONE  NOT AVBL

$$
WYZ002>013-054>058-071-098>099-290200-
NORTHERN WYOMING

CITY           SKY/WX    TMP DP  RH WIND       PRES   REMARKS
JACKSON        FAIR      77  39  25 S7        30.23F
CODY           FAIR      81  39  22 SE6       30.11S
GREYBULL       FAIR      85  39  19 S5        30.03F
WORLAND        FAIR      81  51  35 E3        30.06S
SHERIDAN       FAIR      78  54  43 CALM      30.06S HAZE
BUFFALO        FAIR      79  42  26 N6        30.14S
GILLETTE       FAIR      82  43  25 CALM      30.10R
HULETT         FAIR      81  43  26 N3        30.11R
NEWCASTLE      FAIR      81  37  21 MISG      30.10S

$$
WYZ014>020-022>026-101>103-290200-
CENTRAL WYOMING

CITY           SKY/WX    TMP DP  RH WIND       PRES   REMARKS
BIG PINEY      FAIR      77  27  15 CALM      30.29F
PINEDALE       FAIR      73  32  21 NW8       30.30S
DUBOIS         FAIR      72  32  23 NW9       30.29S
LANDER         FAIR      81  38  21 NE5       30.14F
RIVERTON       FAIR      82  35  18 NE7       30.16F
CASPER         FAIR      78  37  22 S6        30.17S
DOUGLAS        FAIR      81  37  20 S3        30.16S

$$
WYZ021-027>030-104>119-290200-
SOUTHERN WYOMING

CITY           SKY/WX    TMP DP  RH WIND       PRES   REMARKS
EVANSTON       FAIR      78  32  18 N9        30.29F
KEMMERER       FAIR      77  30  18 NW6       30.31S
FORT BRIDGER   CLEAR     79  30  17 E3        30.31F
ROCK SPRINGS   FAIR      77  30  17 E5        30.27F
DIXON          FAIR      79  30  16 CALM      30.30S
RAWLINS        FAIR      76  33  21 CALM      30.29F
SARATOGA       FAIR      72  36  26 CALM      30.33S
LARAMIE        LGT RAIN  71  38  29 N3        30.34S
CHEYENNE       FAIR      76  40  27 NE6       30.26S
TORRINGTON     FAIR      81  45  28 E5        30.10S
PINE BLUFFS    FAIR      75  39  27 NE6       30.20S

$$


USA.gov is the U.S. government's official web portal to all federal, state and local government web resources and services.